Stündliche Wetter Taul

Heute, 31 Oktober, Samstag

Zeit Temperatur Niederschläge Wind Luftdruck Luftfeuchtigkeit
00:00 +8°C° 0 mm 3 m/S 744 mmHg 74%
01:00 +7°C° 0 mm 3 m/S 744 mmHg 76%
02:00 +7°C° 0 mm 2 m/S 744 mmHg 77%
03:00 +7°C° 0 mm 2 m/S 744 mmHg 78%
04:00 +6°C° 0 mm 2 m/S 743 mmHg 80%
05:00 +6°C° 0 mm 2 m/S 743 mmHg 81%
06:00 +6°C° 0 mm 2 m/S 743 mmHg 80%
07:00 +6°C° 0 mm 2 m/S 743 mmHg 79%
08:00 +6°C° 0 mm 2 m/S 743 mmHg 78%
09:00 +7°C° 0 mm 3 m/S 743 mmHg 73%
10:00 +7°C° 0 mm 4 m/S 744 mmHg 68%
11:00 +10°C° 0 mm 4 m/S 744 mmHg 62%
12:00 +9°C° 0 mm 5 m/S 744 mmHg 61%
13:00 +9°C° 0 mm 5 m/S 744 mmHg 60%
14:00 +9°C° 0 mm 5 m/S 743 mmHg 59%
15:00 +9°C° 0.1 mm 6 m/S 743 mmHg 62%
16:00 +8°C° 0.1 mm 6 m/S 743 mmHg 65%
17:00 +8°C° 0.1 mm 6 m/S 743 mmHg 68%
18:00 +7°C° 0 mm 6 m/S 744 mmHg 69%
19:00 +7°C° 0 mm 6 m/S 744 mmHg 70%
20:00 +7°C° 0 mm 6 m/S 744 mmHg 71%
21:00 +7°C° 0 mm 6 m/S 743 mmHg 72%
22:00 +6°C° 0 mm 7 m/S 743 mmHg 73%
23:00 +6°C° 0 mm 7 m/S 743 mmHg 74%

Morgen, 1 November, Sonntag

Zeit Temperatur Niederschläge Wind Luftdruck Luftfeuchtigkeit
00:00 +6°C° 0.1 mm 7 m/S 743 mmHg 76%
01:00 +6°C° 0.1 mm 7 m/S 743 mmHg 78%
02:00 +6°C° 0.1 mm 7 m/S 743 mmHg 80%
03:00 +6°C° 0.4 mm 8 m/S 743 mmHg 82%
04:00 +6°C° 0.4 mm 8 m/S 743 mmHg 83%
05:00 +6°C° 0.4 mm 8 m/S 742 mmHg 84%
06:00 +6°C° 0.3 mm 8 m/S 742 mmHg 84%
07:00 +6°C° 0.3 mm 8 m/S 743 mmHg 84%
08:00 +7°C° 0.3 mm 8 m/S 743 mmHg 83%
09:00 +6°C° 0.2 mm 8 m/S 743 mmHg 83%
10:00 +6°C° 0.2 mm 8 m/S 743 mmHg 83%
11:00 +6°C° 0.2 mm 9 m/S 743 mmHg 82%
12:00 +6°C° 0.2 mm 9 m/S 743 mmHg 81%
13:00 +6°C° 0.2 mm 9 m/S 742 mmHg 80%
14:00 +6°C° 0.2 mm 9 m/S 742 mmHg 79%
15:00 +6°C° 0.3 mm 8 m/S 742 mmHg 78%
16:00 +7°C° 0.3 mm 8 m/S 742 mmHg 77%
17:00 +7°C° 0.3 mm 8 m/S 742 mmHg 76%
18:00 +7°C° 0 mm 8 m/S 742 mmHg 76%
19:00 +6°C° 0 mm 8 m/S 742 mmHg 77%
20:00 +6°C° 0 mm 8 m/S 742 mmHg 78%
21:00 +6°C° 0 mm 7 m/S 742 mmHg 79%
22:00 +6°C° 0 mm 7 m/S 742 mmHg 80%
23:00 +6°C° 0 mm 7 m/S 742 mmHg 81%

übermorgen, 2 November, Montag

Zeit Temperatur Niederschläge Wind Luftdruck Luftfeuchtigkeit
00:00 +6°C° 0 mm 7 m/S 743 mmHg 82%
01:00 +7°C° 0 mm 6 m/S 743 mmHg 83%
02:00 +6°C° 0 mm 5 m/S 743 mmHg 84%
03:00 +6°C° 0 mm 5 m/S 744 mmHg 85%
04:00 +6°C° 0 mm 4 m/S 744 mmHg 85%
05:00 +7°C° 0 mm 3 m/S 744 mmHg 86%
06:00 +7°C° 0 mm 3 m/S 744 mmHg 86%
07:00 +7°C° 0 mm 3 m/S 744 mmHg 85%
08:00 +7°C° 0 mm 3 m/S 745 mmHg 85%
09:00 +8°C° 0 mm 3 m/S 745 mmHg 81%
10:00 +9°C° 0 mm 3 m/S 745 mmHg 78%
11:00 +9°C° 0 mm 2 m/S 745 mmHg 74%
12:00 +10°C° 0 mm 2 m/S 745 mmHg 71%
13:00 +10°C° 0 mm 3 m/S 745 mmHg 68%
14:00 +11°C° 0 mm 3 m/S 745 mmHg 66%
15:00 +10°C° 0 mm 2 m/S 745 mmHg 68%
16:00 +10°C° 0 mm 2 m/S 745 mmHg 69%
17:00 +10°C° 0 mm 1 m/S 745 mmHg 71%
18:00 +10°C° 0 mm 1 m/S 745 mmHg 72%
19:00 +10°C° 0 mm 1 m/S 745 mmHg 72%
20:00 +9°C° 0 mm 0 m/S 745 mmHg 73%
21:00 +9°C° 0 mm 0 m/S 745 mmHg 72%
22:00 +9°C° 0 mm 0 m/S 745 mmHg 71%
23:00 +9°C° 0 mm 0 m/S 745 mmHg 70%

3 November, Dienstag

Zeit Temperatur Niederschläge Wind Luftdruck Luftfeuchtigkeit
00:00 +9°C° 0 mm 0 m/S 745 mmHg 71%
01:00 +9°C° 0 mm 0 m/S 745 mmHg 71%
02:00 +9°C° 0 mm 0 m/S 745 mmHg 72%
03:00 +9°C° 0.1 mm 0 m/S 745 mmHg 74%
04:00 +8°C° 0.1 mm 0 m/S 745 mmHg 76%
05:00 +9°C° 0.1 mm 1 m/S 745 mmHg 79%
06:00 +9°C° 0.2 mm 1 m/S 745 mmHg 80%
07:00 +9°C° 0.2 mm 1 m/S 745 mmHg 82%
08:00 +9°C° 0.2 mm 1 m/S 745 mmHg 84%
09:00 +9°C° 0.2 mm 1 m/S 745 mmHg 84%
10:00 +9°C° 0.2 mm 1 m/S 746 mmHg 85%
11:00 +8°C° 0.2 mm 2 m/S 746 mmHg 85%
12:00 +8°C° 0.2 mm 2 m/S 746 mmHg 86%
13:00 +9°C° 0.2 mm 1 m/S 746 mmHg 87%
14:00 +9°C° 0.2 mm 1 m/S 746 mmHg 88%
15:00 +9°C° 0.1 mm 1 m/S 746 mmHg 89%
16:00 +9°C° 0.1 mm 1 m/S 746 mmHg 89%
17:00 +9°C° 0.1 mm 1 m/S 746 mmHg 90%
18:00 +9°C° 0.1 mm 1 m/S 746 mmHg 90%
19:00 +9°C° 0.1 mm 1 m/S 746 mmHg 91%
20:00 +9°C° 0.1 mm 1 m/S 746 mmHg 91%
21:00 +9°C° 0.2 mm 1 m/S 746 mmHg 91%
22:00 +9°C° 0.2 mm 1 m/S 747 mmHg 92%
23:00 +9°C° 0.2 mm 1 m/S 747 mmHg 92%

4 November, Mittwoch

Zeit Temperatur Niederschläge Wind Luftdruck Luftfeuchtigkeit
00:00 +9°C° 0.1 mm 1 m/S 747 mmHg 93%
01:00 +9°C° 0.1 mm 1 m/S 747 mmHg 93%
02:00 +9°C° 0.1 mm 1 m/S 747 mmHg 93%
03:00 +9°C° 0.1 mm 1 m/S 747 mmHg 93%
04:00 +9°C° 0.1 mm 1 m/S 747 mmHg 93%
05:00 +9°C° 0.1 mm 1 m/S 747 mmHg 93%
06:00 +10°C° 0 mm 1 m/S 747 mmHg 92%
07:00 +10°C° 0 mm 1 m/S 747 mmHg 91%
08:00 +10°C° 0 mm 1 m/S 748 mmHg 90%
09:00 +10°C° 0 mm 1 m/S 748 mmHg 87%
10:00 +11°C° 0 mm 1 m/S 748 mmHg 84%
11:00 +10°C° 0 mm 2 m/S 748 mmHg 81%
12:00 +12°C° 0 mm 2 m/S 748 mmHg 79%
13:00 +12°C° 0 mm 2 m/S 748 mmHg 76%
14:00 +13°C° 0 mm 2 m/S 748 mmHg 73%
15:00 +12°C° 0 mm 1 m/S 749 mmHg 76%
16:00 +12°C° 0 mm 1 m/S 749 mmHg 78%
17:00 +10°C° 0 mm 0 m/S 749 mmHg 81%
18:00 +10°C° 0 mm 0 m/S 749 mmHg 81%
19:00 +10°C° 0 mm 0 m/S 750 mmHg 82%
20:00 +10°C° 0 mm 0 m/S 750 mmHg 83%
21:00 +10°C° 0 mm 1 m/S 750 mmHg 82%
22:00 +10°C° 0 mm 1 m/S 750 mmHg 82%
23:00 +10°C° 0 mm 1 m/S 751 mmHg 82%

5 November, Donnerstag

Zeit Temperatur Niederschläge Wind Luftdruck Luftfeuchtigkeit
00:00 +10°C° 0 mm 1 m/S 751 mmHg 82%
01:00 +10°C° 0 mm 1 m/S 751 mmHg 82%
02:00 +10°C° 0 mm 1 m/S 751 mmHg 82%
03:00 +10°C° 0 mm 1 m/S 751 mmHg 81%
04:00 +10°C° 0 mm 1 m/S 751 mmHg 81%
05:00 +10°C° 0 mm 1 m/S 751 mmHg 80%
06:00 +10°C° 0 mm 1 m/S 751 mmHg 80%
07:00 +10°C° 0 mm 1 m/S 752 mmHg 79%
08:00 +10°C° 0 mm 0 m/S 752 mmHg 79%
09:00 +11°C° 0 mm 1 m/S 752 mmHg 77%
10:00 +12°C° 0 mm 1 m/S 752 mmHg 75%
11:00 +12°C° 0 mm 1 m/S 752 mmHg 73%
12:00 +12°C° 0.1 mm 1 m/S 752 mmHg 76%
13:00 +12°C° 0.1 mm 1 m/S 753 mmHg 79%
14:00 +12°C° 0.1 mm 1 m/S 753 mmHg 82%
15:00 +12°C° 0.2 mm 2 m/S 753 mmHg 85%
16:00 +10°C° 0.2 mm 3 m/S 753 mmHg 87%
17:00 +10°C° 0.2 mm 3 m/S 753 mmHg 90%
18:00 +10°C° 0.2 mm 4 m/S 753 mmHg 89%
19:00 +8°C° 0.2 mm 4 m/S 754 mmHg 88%
20:00 +8°C° 0.2 mm 5 m/S 754 mmHg 86%
21:00 +8°C° 0.1 mm 5 m/S 754 mmHg 86%
22:00 +8°C° 0.1 mm 5 m/S 754 mmHg 85%
23:00 +8°C° 0.1 mm 5 m/S 755 mmHg 84%
Mehr zeigen